Change the Weather History Date:

Saturday, May 25, 2013

  Actual Average Record
Temperature  
Mean Temperature 47 °F -  
Max Temperature 55 °F 70 °F 88 °F (2012)
Min Temperature 39 °F 49 °F 32 °F (1956)
Degree Days  
Heating Degree Days 18    
Moisture  
Dew Point 36 °F    
Average Humidity 64    
Maximum Humidity 93    
Minimum Humidity 41    
Precipitation  
Precipitation 0.00 in - - ()
Sea Level Pressure  
Sea Level Pressure 30.26 in    
Wind  
Wind Speed 12 mph (NW)    
Max Wind Speed 16 mph    
Max Gust Speed 23 mph    
Visibility 10 miles    
Events      
Averages and records for this station are not official NWS values.
T = Trace of Precipitation, MM = Missing Value Source: NWS Daily Summary

Daily Weather History Graph

Daily Weather History Graph

Search for Another Location

Airport or City:

Trip Planner

Search our weather history database for the weather conditions in past years. The results will help you decide how hot, cold, wet, or windy it might be!

Date:

Astronomy

May. 25, 2013 Rise Set
Actual Time 5:46 AM EDT 8:42 PM EDT
Civil Twilight 5:13 AM EDT 9:15 PM EDT
Nautical Twilight 4:30 AM EDT 9:58 PM EDT
Astronomical Twilight 3:41 AM EDT 10:47 PM EDT
Moon 9:28 PM EDT (5/25) 6:12 AM EDT (5/25)
Length of Visible Light 16h 02m
Length of Day
14h 55m
Full, 100% of the Moon is Illuminated
May 25
Full
May 31
Last Quarter
Jun 8
New
Jun 16
First Quarter
Jun 23
Full

Hourly Weather History & Observations

Time (EDT) Temp. Windchill Dew Point Humidity Pressure Visibility Wind Dir Wind Speed Gust Speed Precip Events Conditions
12:53 AM 46.0 °F 39.3 °F 32.0 °F 58% 30.26 in 10.0 mi NNW 16.1 mph - N/A   Overcast
1:53 AM 45.0 °F 38.2 °F 33.1 °F 63% 30.26 in 10.0 mi NNW 15.0 mph 21.9 mph N/A   Mostly Cloudy
2:53 AM 44.1 °F 37.4 °F 33.1 °F 65% 30.26 in 10.0 mi NNW 13.8 mph 20.7 mph N/A   Partly Cloudy
3:53 AM 43.0 °F 36.0 °F 34.0 °F 71% 30.26 in 10.0 mi NNW 13.8 mph 21.9 mph N/A   Clear
4:53 AM 43.0 °F 36.0 °F 35.1 °F 74% 30.26 in 10.0 mi NNW 13.8 mph 21.9 mph N/A   Clear
5:53 AM 43.0 °F 35.7 °F 35.1 °F 74% 30.26 in 10.0 mi NNW 15.0 mph 19.6 mph N/A   Clear
6:53 AM 44.1 °F 37.7 °F 35.1 °F 71% 30.28 in 10.0 mi NNW 12.7 mph - N/A   Clear
7:53 AM 45.0 °F 39.7 °F 36.0 °F 71% 30.29 in 10.0 mi NNW 10.4 mph - N/A   Scattered Clouds
8:53 AM 46.9 °F - 36.0 °F 66% 30.29 in 10.0 mi NNW 13.8 mph - N/A   Partly Cloudy
9:53 AM 48.0 °F - 37.0 °F 66% 30.30 in 10.0 mi NW 13.8 mph 20.7 mph N/A   Clear
10:53 AM 48.9 °F - 36.0 °F 61% 30.31 in 10.0 mi WNW 10.4 mph 23.0 mph N/A   Clear
11:53 AM 51.1 °F - 33.1 °F 50% 30.31 in 10.0 mi WNW 9.2 mph - N/A   Clear
12:53 PM 51.1 °F - 34.0 °F 52% 30.29 in 10.0 mi NW 9.2 mph - N/A   Clear
1:53 PM 53.1 °F - 34.0 °F 48% 30.27 in 10.0 mi WNW 9.2 mph 17.3 mph N/A   Clear
2:53 PM 54.0 °F - 30.9 °F 41% 30.27 in 10.0 mi West 10.4 mph 18.4 mph N/A   Clear
3:53 PM 54.0 °F - 35.1 °F 49% 30.25 in 10.0 mi West 13.8 mph 20.7 mph N/A   Clear
4:53 PM 55.0 °F - 36.0 °F 49% 30.24 in 10.0 mi WSW 13.8 mph 21.9 mph N/A   Clear
5:53 PM 55.0 °F - 39.0 °F 55% 30.23 in 10.0 mi WSW 13.8 mph 23.0 mph N/A   Clear
6:53 PM 55.9 °F - 39.9 °F 55% 30.23 in 10.0 mi West 12.7 mph 17.3 mph N/A   Clear
7:53 PM 53.1 °F - 41.0 °F 64% 30.23 in 10.0 mi WNW 8.1 mph - N/A   Clear
8:53 PM 51.1 °F - 41.0 °F 68% 30.22 in 10.0 mi Calm Calm - N/A   Clear
9:53 PM 42.1 °F 40.2 °F 39.0 °F 89% 30.23 in 10.0 mi South 3.5 mph - N/A   Clear
10:53 PM 39.9 °F - 37.9 °F 93% 30.24 in 10.0 mi Calm Calm - N/A   Clear
11:53 PM 44.1 °F - 37.0 °F 76% 30.23 in 10.0 mi Calm Calm - N/A   Clear